Snowfall_Accumulation
0.0 0.0 0.0 0.0 0.0 0.0 0.0 0.0 0.0 0.0 0.0 0.0 0.0 0.0 0.0 0.0 0.0 0.0 0.0 0.0 0.0 0.0 0.0 0.0 0.0 0.0 0.0 0.0 0.0 0.0 0.0 0.0 0.0 0.0 0.0 0.0 0.0 0.0 0.0 0.0 0.0 0.0 0.0
0.0 0.0 0.0 0.0 0.0 0.0 0.0 0.0 0.0 0.0 0.0 0.0 0.0 0.0 0.0 0.0 0.0 0.0 0.0 0.0 0.0 0.0 0.0 0.0 0.0 0.0 0.0 0.0 0.0 0.0 0.0 0.0 0.0 0.0 0.0 0.0 0.0 0.0 0.0 0.0 0.0 0.0 0.0
0.0 0.0 0.0 0.0 0.0 0.0 0.0 0.0 0.0 0.0 0.0 0.0 0.0 0.0 0.0 0.0 0.0 0.0 0.0 0.0 0.0 0.0 0.0 0.0 0.0 0.0 0.0 0.0 0.0 0.0 0.0 0.0 0.0 0.3 0.1 0.0 0.0 0.0 0.0 0.0 0.0 0.0 0.0
0.0 0.0 0.0 0.0 0.0 0.0 0.0 0.0 0.0 0.0 0.0 0.0 0.0 0.0 0.0 0.0 0.0 0.0 0.0 0.0 0.0 0.0 0.0 0.0 0.0 0.0 0.0 0.0 0.0 0.0 0.0 0.1 0.1 0.1 0.0 0.0 0.0 0.0 0.1 0.0 0.1 0.0 0.0
0.0 0.0 0.0 0.0 0.0 0.0 0.0 0.0 0.0 0.0 0.0 0.0 0.0 0.0 0.0 0.0 0.0 0.0 0.0 0.0 0.0 0.0 0.0 0.0 0.0 0.0 0.0 0.0 0.0 0.0 0.1 0.3 0.5 0.6 0.2 0.4 0.2 0.0 0.1 0.1 0.2 0.0 0.0
0.0 0.0 0.0 0.0 0.0 0.0 0.0 0.0 0.0 0.0 0.0 0.0 0.0 0.0 0.0 0.0 0.0 0.0 0.0 0.0 0.0 0.0 0.0 0.0 0.0 0.0 0.0 0.0 0.0 0.1 0.2 0.9 1.4 1.1 0.6 0.6 0.1 0.3 0.4 0.5 0.6 0.7 0.9
0.0 0.0 0.0 0.0 0.0 0.0 0.0 0.0 0.0 0.0 0.0 0.0 0.0 0.0 0.0 0.0 0.0 0.0 0.0 0.0 0.0 0.0 0.0 0.0 0.0 0.0 0.0 0.0 0.0 0.0 0.1 0.1 0.9 1.4 1.8 0.9 0.9 0.3 0.3 0.6 0.5 1.4 1.4
0.0 0.0 0.2 0.0 0.0 0.0 0.0 0.0 0.0 0.0 0.0 0.0 0.0 0.0 0.0 0.0 0.0 0.0 0.0 0.0 0.0 0.0 0.0 0.0 0.0 0.0 0.0 0.0 0.9 0.6 0.1 0.1 0.0 0.1 0.4 0.4 0.2 0.1 0.4 0.5 1.6 1.0 0.2
1.7 1.5 1.0 0.4 0.2 0.2 0.0 0.0 0.0 0.0 0.0 0.0 0.0 0.0 0.0 0.0 0.0 0.0 0.0 0.0 0.0 0.0 0.0 0.0 0.0 0.0 0.0 0.7 1.0 1.2 0.4 0.1 0.0 0.0 0.1 0.4 0.1 0.2 0.2 2.0 3.3 4.0 3.8
3.4 5.7 1.8 1.6 0.9 3.4 3.6 1.7 2.4 0.1 0.3 0.0 0.0 0.0 0.0 0.0 0.0 0.0 0.0 0.1 0.2 0.1 0.1 0.1 0.0 0.2 1.1 1.3 2.6 2.3 2.1 0.5 0.9 0.8 1.7 1.4 1.1 0.7 1.9 1.6 2.6 6.0 4.0
2.6 5.2 1.5 3.4 1.3 4.4 5.4 4.0 3.3 2.6 4.1 3.4 0.1 2.5 2.4 0.1 0.0 0.0 0.0 0.1 0.5 1.7 0.2 0.1 0.2 2.1 1.6 1.3 0.7 1.2 2.6 1.2 0.7 0.4 1.3 1.3 1.9 1.5 1.3 1.2 1.9 3.0 4.3
1.8 2.6 3.6 3.5 3.6 3.5 2.9 5.0 6.7 7.3 5.1 5.2 2.9 4.2 2.2 2.6 2.2 2.2 2.6 2.7 5.3 5.0 5.2 4.3 4.4 3.3 0.5 0.4 3.1 2.3 3.3 3.3 2.4 2.9 3.5 5.5 7.1 8.2 7.3 7.6 7.1 7.2 8.2
0.6 0.9 2.0 2.3 3.2 3.2 3.1 3.5 3.3 3.6 3.5 4.1 4.3 3.0 5.0 5.4 6.3 6.5 7.1 7.1 7.1 8.1 7.9 10.0 6.5 8.0 4.0 4.2 4.4 4.0 2.8 6.2 13.8 16.9 18.5 17.6 17.1 16.6 14.3 13.3 13.1 12.2 11.3
0.1 0.2 0.3 0.6 1.0 1.4 1.9 2.3 3.2 3.7 2.6 3.0 2.5 2.7 2.5 2.5 2.8 3.1 3.4 6.0 6.6 8.9 8.7 9.2 12.6 11.7 12.4 16.2 14.7 23.9 24.8 29.0 31.7 34.2 35.0 30.9 28.5 24.2 19.7 16.4 13.9 10.9 10.9
0.0 0.1 0.1 0.0 0.1 0.2 0.7 1.2 1.6 3.0 2.7 3.3 4.0 3.7 3.7 6.3 7.1 5.0 7.0 5.2 5.4 9.1 9.9 13.1 19.9 16.3 20.6 21.0 21.2 22.5 25.0 25.3 26.3 26.3 25.9 24.4 21.6 18.9 16.8 14.0 14.6 10.5 9.5
0.0 0.0 0.2 0.4 0.1 0.0 0.0 0.2 0.2 0.5 0.4 1.8 0.7 2.5 7.1 9.8 10.4 11.7 12.5 13.2 15.6 15.3 21.7 23.7 24.8 24.6 23.6 21.7 20.4 18.4 15.3 14.6 14.5 13.5 13.8 11.5 12.5 11.6 9.5 6.8 6.0 7.0 7.1
0.1 0.1 0.1 0.2 0.2 1.6 0.1 0.0 2.4 5.4 5.5 7.6 8.6 10.7 10.6 12.0 10.4 9.8 10.0 10.0 10.3 9.7 14.0 13.4 13.2 12.6 11.1 8.8 9.3 9.0 10.2 8.5 6.1 6.4 7.1 6.3 6.4 5.4 5.4 5.4 5.1 4.8 4.3
0.3 0.4 0.6 3.5 5.7 6.9 3.8 5.4 7.0 7.5 12.5 16.0 15.5 13.3 11.5 9.9 8.9 8.0 7.2 6.9 8.9 6.8 7.5 7.6 7.7 6.1 3.8 3.7 3.8 3.5 3.3 2.8 2.3 2.9 4.2 4.1 4.4 4.5 4.2 3.9 3.7 3.9 3.2
0.6 1.2 7.3 9.0 10.6 10.3 10.6 10.6 10.6 10.4 10.0 10.8 8.9 9.2 8.8 6.9 6.3 6.3 5.3 6.7 7.5 7.2 5.7 5.0 4.3 3.6 2.8 1.4 1.9 2.0 2.1 2.2 1.8 2.4 2.0 2.6 2.6 3.1 2.9 2.7 2.8 2.8 2.9
4.9 7.0 6.9 8.1 9.2 9.2 9.1 8.9 9.1 8.5 8.7 8.5 8.0 9.6 8.3 5.5 6.4 6.2 5.3 5.5 5.2 4.5 3.9 3.3 2.4 1.6 2.2 2.6 2.8 2.9 2.5 1.6 1.6 1.5 1.9 2.1 2.7 3.5 4.0 3.1 2.4 3.5 2.3
10.5 11.1 10.1 9.4 9.9 9.5 8.6 8.0 7.5 7.2 7.0 6.4 8.1 7.8 5.6 4.9 6.2 5.1 3.9 3.1 2.8 2.7 2.7 2.8 2.8 3.1 3.1 2.9 2.7 2.4 2.1 2.0 1.6 2.3 2.1 2.0 2.0 2.5 2.2 1.8 2.4 2.0 1.3
9.7 9.6 8.8 8.5 7.9 7.8 7.5 6.7 6.9 6.8 6.5 6.2 5.1 3.7 1.9 3.2 2.8 1.8 1.7 3.0 3.2 3.2 4.0 4.4 3.6 3.0 2.6 2.9 2.7 2.9 2.4 2.1 2.1 2.3 2.2 1.8 1.1 1.6 1.7 1.9 1.7 1.5 2.2
6.9 6.6 5.9 5.6 5.3 4.7 4.4 4.5 4.7 3.8 3.3 2.7 2.7 3.3 2.5 2.5 2.7 2.1 2.9 2.4 2.9 1.9 1.1 1.4 1.9 1.3 1.5 2.1 2.4 3.0 2.5 1.9 2.0 2.5 3.4 2.8 2.2 2.0 2.5 3.0 2.5 2.7 2.5
3.7 4.0 3.7 3.0 3.2 2.6 2.1 2.2 1.6 1.2 3.0 3.6 3.1 1.8 2.7 2.5 3.3 2.7 2.1 1.4 1.0 1.2 1.5 1.8 1.9 1.6 1.4 1.7 2.2 2.4 2.1 1.6 3.0 3.1 3.4 3.3 1.9 1.5 2.4 2.5 2.4 2.6 2.6
1.5 1.8 1.6 1.8 2.2 3.1 2.9 2.8 3.4 3.0 3.2 3.0 3.1 2.3 1.5 1.1 1.4 1.7 1.7 1.6 1.1 0.9 1.3 1.0 1.3 2.1 1.8 2.1 2.4 2.3 2.3 3.3 3.5 3.2 4.7 3.5 2.2 1.8 2.3 2.4 2.2 3.2 2.6
1.1 1.8 1.8 1.8 2.0 2.2 3.9 4.1 3.1 2.7 2.2 1.8 2.4 2.3 2.2 1.9 1.5 2.0 1.8 1.7 2.3 1.3 1.4 1.7 1.4 1.3 1.7 1.5 1.9 2.6 2.6 2.8 4.5 4.5 6.2 5.1 3.7 2.7 2.6 3.0 2.6 3.4 2.2